Zurück zum Katalog

DELTA 2 R/B

AktivUNKNOWN
NORAD 21048·ROCKET BODY·🇺🇸 United States

Gestartet Jan 8, 1991 von Cape Canaveral Space Force Station

Loading…

Nächste Überflüge (nächste 24 Stunden)

TLE

AktuellSource: Space-Track

Epoche: Sep 14, 2026, 12:51 UTC

1 21048U 91001B   26257.53592851  .00000243  00000-0  16607-3 0  9998
2 21048  18.4539 223.5431 1188034   1.2165 359.0757 11.85471094547111

Verfolge DELTA 2 R/B in Echtzeit mit AllMySat

Download on the App Store